Regional Weather Roundup
Issued by NWS Wakefield, VA

Home | Current Version | Previous Version | Graphics & Text | Print | Product List | Glossary On
Versions: 1 2 3 4 5 6 7 8 9 10 11 12 13 14 15 16 17 18 19 20 21 22 23 24 25 26 27
000
ASUS41 KAKQ 271515
RWRAKQ

REGIONAL WEATHER ROUNDUP
NATIONAL WEATHER SERVICE WAKEFIELD VA
1100 AM EDT SUN MAY 27 2018

Note: "fair" indicates few or no clouds below 12,000 feet with no
significant weather and/or obstructions to visibility. * = Denotes
station may not report precipitation (e.g., rain,snow,etc.),
thunder or fog.

VAZ042-051-052>054-056-271600-
NORTHERN VIRGINIA

CITY           SKY/WX    TMP DP  RH WIND       PRES   REMARKS
WASH NATIONAL  PTSUNNY   80  72  76 S8        29.93S
DULLES         PTSUNNY   83  71  67 VRB3      29.94S
FORT BELVOIR   FAIR      79  73  81 S5        29.94S
QUANTICO       PTSUNNY   78  75  90 S7        29.95S
FREDERICKSBRG* PTSUNNY   79  72  79 CALM      29.94S
STAFFORD*      FAIR      80  77  91 CALM      29.98S
WARRENTON      FAIR      81  70  68 CALM      29.94S
CULPEPER*      PTSUNNY   80  72  75 W3        29.96S
MANASSAS*      FAIR      80  73  79 VRB3      29.94F
LEESBURG*      FAIR      82  70  65 NE5       29.95S
WINCHESTER     PTSUNNY   77  68  73 E3        29.98S
FRONT ROYAL*   PTSUNNY   81  72  74 CALM      29.95F VSB 3/4
LURAY*         FAIR      81  68  65 CALM      29.96S
$$

VAZ048-049-060>072-079>083-271600-
CENTRAL AND SOUTH CENTRAL VIRGINIA

CITY           SKY/WX    TMP DP  RH WIND       PRES   REMARKS
RICHMOND       PTSUNNY   79  72  79 SW8       29.96S
CHESTERFIELD*  NOT AVBL
PETERSBURG*    CLOUDY    78  71  80 SW8       29.98S
HANOVER        PTSUNNY   82  72  71 SW8       29.97S
TAPPAHANNOCK*  PTSUNNY   79  73  81 S9        29.97R
QUINTON*       CLOUDY    78  73  85 S6        29.96S
CHARLOTTSVILLE FAIR      82  72  71 CALM      29.95S
GORDONSVILLE*  HAZE      80  74  82 CALM      29.95S VSB 1/4
ORANGE*        FAIR      81  72  74 W3        29.95S
LOUISA*        FAIR      79  71  77 SW6       30.01R
BUMPASS*       PTSUNNY   80  73  79 SW5       29.96S
FARMVILLE*     PTSUNNY  N/A N/A N/A SW7       29.97R
CREWE*         CLOUDY    80  78  96 SW8       29.98S
FORT PICKETT*  CLOUDY    77  77 100 S10G16    29.99S
CHASE CITY*    PTSUNNY   78  77  97 SW6       30.00S
CLARKSVILLE*   CLOUDY    77  75  94 S7        30.00R
SOUTH HILL*    CLOUDY    76  73  90 SW9       30.06S
LAWRENCEVILLE* CLOUDY    78  72  80 S7        30.00S
EMPORIA*       PTSUNNY   79  70  73 S10       30.01S
$$

VAZ088>098-271600-
SOUTHEAST VIRGINIA

CITY           SKY/WX    TMP DP  RH WIND       PRES   REMARKS
NORFOLK        FAIR      85  74  69 SW17      29.98S
VIRGINIA BEACH FAIR      84  72  67 SW18      29.97F
NORFOLK NAVAL  PTSUNNY   83  72  69 SW8G20    29.99F
WEST POINT*    CLOUDY    77  72  85 S5        29.98S
SALUDA*        CLOUDY    76  75  95 SW6       29.97R
NEWPORT NEWS   PTSUNNY   80  72  76 SW12      29.98R
LANGLEY AFB    FAIR      80  73  78 SW13      29.98S
FORT EUSTIS    FAIR      80  73  78 SW8       29.96R
WILLIAMSBURG*  FAIR      81  72  74 W7        29.98S
HR EXEC AP*    PTSUNNY   83  72  69 SW14      29.99F
FRANKLIN*      PTSUNNY   81  72  74 SW9G16    30.00S
US460-WAKEFLD  PTSUNNY   81  72  74 SW9       29.98S
$$

VAZ020-022-025-037-045-271600-
WEST CENTRAL AND SOUTHWEST VIRGINIA

CITY           SKY/WX    TMP DP  RH WIND       PRES   REMARKS
STAUNTON*      FAIR      78  68  69 SW3       30.00S
WAYNESBORO*    FAIR      79  70  72 W6        30.00S
HOT SPRINGS VA CLOUDY    68  66  91 W5        30.13R
LYNCHBURG      FAIR      79  70  74 VRB6      29.99F
DANVILLE       PTSUNNY   77  73  87 SW10      30.00S
SOUTH BOSTON*  CLOUDY    79  73  81 SW10G16   30.00S
MARTINSVILLE   CLOUDY    77  69  77 SW6       30.04R
ROANOKE        FAIR      79  68  69 CALM      30.01S
BLACKSBURG     FAIR      76  68  76 SW3       30.07F
DUBLIN*        FAIR      77  67  70 W5        30.06S
MARION*        PTSUNNY   75  69  80 SW6       30.09F
HILLSVILLE*    PTSUNNY   74  65  74 CALM      30.07S
RICHLANDS*     FAIR      72  52  49 NW5       30.07S
WISE*          CLOUDY    70  70 100 W5        30.09R
ABINGDON*      CLOUDY    75  68  80 SW5       30.06S
$$

MDZ021>025-VAZ099-100-271600-
SOUTHERN MARYLAND AND THE DELMARVA PENINSULA

CITY           SKY/WX    TMP DP  RH WIND       PRES   REMARKS
PATUXENT RIVER PTSUNNY   83  71  67 SW12      29.94R
BAY BRIDGE APT CLOUDY    79  72  78 SW3       29.93S
LEONARDTOWN    PTSUNNY   77  70  78 SW9       29.96S
DOVER          CLOUDY    77  73  86 SW7       29.93R
GEORGETOWN     CLOUDY    78  72  81 SW8       29.94S
EASTON         PTSUNNY   81  72  74 W6        29.98R
CAMBRIDGE      CLOUDY    79  73  83 VRB6G13   29.94S
SALISBURY      CLOUDY    78  72  81 SW9       29.94S
TANGIER        FAIR      77  75  94 SW15      29.96S
OCEAN CITY     CLOUDY    76  74  93 W9        29.95S
WALLOPS ISLAND CLOUDY    78  73  84 W9        29.97R
ACCOMACK*      CLOUDY    76  72  87 W8        29.98R
$$

NCZ012>017-030>032-271600-
NORTH CENTRAL AND EASTERN NORTH CAROLINA

CITY           SKY/WX    TMP DP  RH WIND       PRES   REMARKS
ROANOKE RAPIDS PTSUNNY   81  72  74 SW7       30.01S
RALEIGH        PTSUNNY   78  73  84 SW6       30.02F
ELIZABETH CITY FAIR      82  71  69 S14G23    30.02S
AHOSKIE*       FAIR      81  71  70 S8        30.01S
EDENTON*       FAIR      83  70  64 SW9       30.03F
CURRITUCK*     NOT AVBL
KILL DEVIL HLS FAIR      82  69  65 CALM      30.02S
MANTEO         FAIR      82  69  65 SW14      30.04S
CAPE HATTERAS  FAIR      81  74  79 SW8       30.06S
TARBORO*       NOT AVBL
GOLDSBORO      FAIR      81  69  65 SW9       30.02S
WASHINGTON     FAIR      83  69  62 SW8       30.04S
GREENVILLE     FAIR      82  70  65 S9        30.05S
NEW BERN       FAIR      80  68  66 S8        30.06R
WILMINGTON     PTSUNNY   82  68  62 SE8       30.04S
$$

VAZ048-271600-
ELSEWHERE

CITY           SKY/WX    TMP DP  RH WIND       PRES   REMARKS
HARRISBURG PA  CLOUDY    78  68  71 E7        29.94S
BALTIMORE      PTSUNNY   79  72  79 CALM      29.93R
ANNAPOLIS      CLOUDY   N/A N/A N/A SE6       29.93R
ANDREWS AFB    FAIR      79  71  74 W6        29.94R
PHILADELPHIA   PTSUNNY   69  66  90 E15       29.96S
HENDERSON NC   CLOUDY    73  68  84 SW8       30.02S
GREENSBORO     PTSUNNY   78  71  79 SW12      30.02S
ROCKY MOUNT    FAIR      81  69  67 S12       30.02F
$$

VAZ100-271600-
MARINE

STATION/POSITION TIME  TEMP    WIND        PRES    WAVE   SWELL
                       AIR SEA DIR/SP/G            HT/PER HT/PER
                 (UTC) (F)     (DEG/KT/KT) (MB)    (FT/S) (FT/S)
BRANDYWINE LGT   1448   74     240/  8/  9 1014.1R
CAPE MAY NJ      1448   73 67  220/  7/  9 1013.3R
LEWES DE         1448   77 67  250/  7/ 12 1013.6R
15NM E FENWICK I 1450   66 65  200/ 14/ 14 1014.4S   2/ 5   2/ 9
OCEAN-CITY-INLET 1448   63 59  210/  8/  9 1014.6F
WACHAPREAGUE VA  1448   78 78  240/  7/ 14 1014.9R
THOMAS POINT MD  1500   74 70  170/  9/  9 1014.5R
GOOSES REEF MD   1500   76     190/  2/  2 1015.3    1/ 3
COVE POINT MD    1448   77     230/  8/ 10 1014.5R
SOLOMONS ISLAND  1448   78 73  210/  8/ 10 1013.7R
BISHOPS HEAD MD  1448   76 78  230/ 12/ 13 1014.6S
PINEY POINT MD   1448          280/  3/  5   N/A
POTOMAC MD       1500   77 76  240/ 12/ 14 1013.4    1/ 2
CAMBRIDGE MD     1442   80 76              1014.8R
LEWISETTA VA     1442   77 75  250/  9/ 12 1014.0R
RAPPAHANNOCK LGT 1448          210/ 11/ 14 1015.7R
STINGRAY PT      1500   75 74  280/  6/  8 1016.9    1/ 2
YORK RVR RNG VA  1448   78     240/ 12/ 14 1015.4R
YORKTOWN VA      1448   78 75  220/  7/ 12 1014.5R
DOMINION TERM VA 1442   78     230/ 12/ 14 1015.5S
KIPTOPEKE VA     1448      74  250/  7/ 10   N/A
CAPE HENRY VA    1448   80     220/  9/ 16 1013.6F
WILLOUBY STN VA  1448   78     230/ 12/ 14 1014.4F
S CRANEY ISL VA  1448   81     230/ 12/ 17 1015.0F
CAPE HENRY BUOY  1500      71                N/A     2/ 9
1ST LANDING BUOY 1500   77 74  240/ 12/ 14 1014.9    1/ 3
64NM E OF VA BCH 1450   74 72  220/ 14/ 16 1017.0R   3/ 5   2/ 9
DUCK PIER NC     1448   79 53  220/ 15/ 18 1016.4S
44100 DUCK FRF   1445      70                N/A     2/ 8
44056 DUCK FRF   1500      57                N/A     1/ 8
OREGON INLET NC  1442   78 79  200/ 17/ 21 1017.2R
HATTERAS NC      1448   80 77  190/  3/  8 1017.6R
DIAMOND SHLS NC  1450   78 78  190/ 14/ 16 1018.4R   3/ 5   2/ 8
CAPE LOOKOUT NC  1500          170/  6/  7 1018.1F
$$




USA.gov is the U.S. government's official web portal to all federal, state and local government web resources and services.